This demonstration page uses our WeatherBlox Daily Observations layout. Learn more.

Hourly Observations for December 31, 2018

Temp ( °F °C ) Dew Point ( °F °C ) Humidity (%) Winds ( mph kmh ) Pressure ( in mb ) Visibility ( mi km ) Precip ( " mm )
12:15 am 00:15 Clear 18 -7.9 16 -9 92 92 Calm 29.77 1008 10 16.0934 0 0
12:35 am 00:35 Clear 18 -7.6 16 -8.7 92 92 Calm 29.77 1008 10 16.0934 0 0
12:55 am 00:55 Clear 17 -8.1 16 -8.8 95 95 NW 3 6 29.77 1008 10 16.0934 0 0
1:15 am 01:15 Clear 17 -8.3 16 -9 95 95 Calm 29.8 1009 10 16.0934 0 0
1:35 am 01:35 Clear 15 -9.2 14 -9.9 95 95 NNW 5 7 29.77 1008 10 16.0934 0 0
1:55 am 01:55 Clear 15 -9.2 15 -9.7 96 96 Calm 29.77 1008 10 16.0934 0 0
2:15 am 02:15 Clear 17 -8.5 16 -9.1 95 95 Calm 29.77 1008 10 16.0934 0 0
2:35 am 02:35 Clear 13 -10.4 12 -10.9 96 96 N 3 6 29.77 1008 10 16.0934 0 0
2:55 am 02:55 Clear 15 -9.6 13 -10.3 95 95 N 3 6 29.74 1007 10 16.0934 0 0
3:15 am 03:15 Clear 14 -10.1 13 -10.6 96 96 NW 8 13 29.74 1007 10 16.0934 0 0
3:35 am 03:35 Clear 16 -8.7 15 -9.2 96 96 NW 6 9 29.74 1007 10 16.0934 0 0
3:55 am 03:55 Clear 17 -8.5 15 -9.2 95 95 Calm 29.77 1008 10 16.0934 0 0
4:15 am 04:15 Clear 17 -8.1 16 -9 93 93 Calm 29.77 1008 10 16.0934 0 0
4:35 am 04:35 Clear 16 -9.1 14 -9.8 95 95 N 6 9 29.74 1007 10 16.0934 0 0
4:55 am 04:55 Clear 18 -7.6 16 -8.7 92 92 NNW 3 6 29.74 1007 10 16.0934 0 0
5:15 am 05:15 Clear 17 -8.1 16 -9 93 93 Calm 29.77 1008 10 16.0934 0 0
5:35 am 05:35 Clear 19 -7.3 17 -8.5 91 91 Calm 29.77 1008 10 16.0934 0 0
5:55 am 05:55 Clear 18 -7.7 16 -8.8 92 92 NNE 5 7 29.77 1008 10 16.0934 0 0
6:15 am 06:15 Clear 19 -7 18 -7.9 93 93 NW 9 15 29.8 1009 10 16.0934 0 0
6:35 am 06:35 Clear 21 -6 19 -7 93 93 NNW 9 15 29.77 1008 10 16.0934 0 0
6:55 am 06:55 Clear 24 -4.7 22 -5.5 94 94 N 10 17 29.77 1008 10 16.0934 0 0
7:15 am 07:15 Clear 25 -3.7 24 -4.5 94 94 N 10 17 29.8 1009 10 16.0934 0 0
7:35 am 07:35 Mostly Cloudy 27 -2.8 26 -3.3 96 96 N 18 30 29.8 1009 10 16.0934 0 0
7:55 am 07:55 Cloudy 29 -1.6 28 -2.3 95 95 N 23 37 29.8 1009 10 16.0934 0 0
8:15 am 08:15 Cloudy 30 -1.2 29 -1.8 96 96 N 28 44 29.8 1009 7 11.26538 0 0
8:35 am 08:35 Cloudy with Mist and Fog 29 -1.4 29 -1.7 98 98 N 26 43 29.83 1010 3 4.82802 0 0
8:55 am 08:55 Cloudy with Mist and Fog 25 -4.1 23 -5 94 94 N 25 41 29.88 1012 4 6.43736 0 0
9:15 am 09:15 Cloudy with Mist and Fog 22 -5.3 21 -6.1 94 94 N 28 44 29.91 1013 3 4.82802 0 0
9:35 am 09:35 Cloudy with Mist and Fog 21 -6.1 18 -7.7 89 89 N 26 43 29.94 1014 3 4.82802 0 0
9:55 am 09:55 Cloudy with Mist and Fog 20 -6.6 16 -8.7 85 85 N 25 41 29.94 1014 4 6.43736 0 0
10:15 am 10:15 Cloudy with Mist and Fog 19 -7 16 -9 86 86 N 24 39 29.97 1015 2.5 4.02335 0 0
10:35 am 10:35 Cloudy with Mist and Fog 19 -7.5 15 -9.6 85 85 N 32 52 29.97 1015 2.5 4.02335 0 0
10:55 am 10:55 Cloudy with Mist and Fog 19 -7.5 15 -9.6 85 85 N 26 43 30 1016 5 8.0467 0 0
11:15 am 11:15 Cloudy with Haze 18 -7.9 13 -10.5 82 82 N 28 44 30.03 1017 3 4.82802 0 0
11:35 am 11:35 Cloudy with Haze 17 -8.2 13 -10.8 82 82 N 24 39 30.06 1018 4 6.43736 0 0
11:55 am 11:55 Cloudy with Haze 17 -8.3 12 -11.1 80 80 N 26 43 30.06 1018 5 8.0467 0 0
12:15 pm 12:15 Cloudy 17 -8.5 11 -11.4 80 80 N 22 35 30.06 1018 7 11.26538 0 0
12:35 pm 12:35 Cloudy with Haze 17 -8.5 11 -11.5 79 79 N 25 41 30.09 1019 5 8.0467 0 0
12:55 pm 12:55 Cloudy with Haze 16 -8.7 11 -11.5 80 80 N 21 33 30.09 1019 4 6.43736 0 0
1:15 pm 13:15 Windy with Snow Likely 16 -9 11 -11.5 82 82 N 26 43 30.09 1019 2 3.21868 0 0
1:35 pm 13:35 Windy with Snow Likely 16 -8.8 11 -11.6 80 80 N 29 46 30.12 1020 2 3.21868 0 0
1:55 pm 13:55 Windy with Snow Likely 16 -9 10 -12 79 79 NNW 23 37 30.12 1020 4 6.43736 0 0
2:15 pm 14:15 Windy with Snow Likely 16 -9 11 -11.8 80 80 NNW 28 44 30.15 1021 3 4.82802 0 0
2:35 pm 14:35 Windy with Snow Likely 16 -9.1 10 -12.1 79 79 NNW 32 52 30.15 1021 2.5 4.02335 0 0
2:55 pm 14:55 Cloudy with Haze 15 -9.6 10 -12.5 80 80 N 30 48 30.15 1021 2 3.21868 0 0
3:15 pm 15:15 Cloudy with Haze 15 -9.6 10 -12.4 80 80 N 28 44 30.21 1023 2.5 4.02335 0 0
3:35 pm 15:35 Cloudy with Haze 13 -10.3 9 -13 81 81 N 29 46 30.21 1023 3 4.82802 0 0
3:55 pm 15:55 Cloudy with Haze 14 -10 9 -12.7 81 81 N 23 37 30.24 1024 5 8.0467 0 0
4:15 pm 16:15 Cloudy with Haze 13 -10.5 8 -13.2 81 81 N 21 33 30.24 1024 5 8.0467 0 0
4:35 pm 16:35 Cloudy with Haze 13 -10.5 9 -13 82 82 N 30 48 30.27 1025 5 8.0467 0 0
4:55 pm 16:55 Cloudy with Haze 12 -11 7 -14 79 79 N 23 37 30.27 1025 4 6.43736 0 0
5:15 pm 17:15 Cloudy with Haze 12 -11.2 7 -14 80 80 N 25 41 30.27 1025 5 8.0467 0 0
5:35 pm 17:35 Cloudy with Haze 11 -11.7 6 -14.5 80 80 N 35 56 30.33 1027 3 4.82802 0 0
6:15 pm 18:15 Cloudy with Haze 10 -12.2 5 -15 80 80 N 28 44 30.36 1028 3 4.82802 0 0
6:35 pm 18:35 Cloudy 10 -12.1 5 -15 79 79 N 23 37 30.36 1028 7 11.26538 0 0
6:55 pm 18:55 Cloudy 10 -12.3 5 -15.2 79 79 N 22 35 30.39 1029 7 11.26538 0 0
7:15 pm 19:15 Cloudy 9 -12.6 4 -15.5 79 79 N 31 50 30.39 1029 7 11.26538 0 0
7:35 pm 19:35 Cloudy 9 -12.6 4 -15.4 80 80 N 22 35 30.39 1029 10 16.0934 0 0
7:55 pm 19:55 Cloudy 9 -13 4 -15.7 80 80 N 18 30 30.42 1030 7 11.26538 0 0
8:15 pm 20:15 Cloudy 8 -13.3 3 -16.1 80 80 N 16 26 30.48 1032 10 16.0934 0 0
8:35 pm 20:35 Cloudy 8 -13.5 2 -16.5 78 78 NNW 20 31 30.5 1033 10 16.0934 0 0
8:55 pm 20:55 Cloudy 8 -13.4 2 -16.5 78 78 N 17 28 30.5 1033 10 16.0934 0 0
9:15 pm 21:15 Cloudy 8 -13.5 2 -16.9 76 76 N 17 28 30.53 1034 10 16.0934 0 0
9:35 pm 21:35 Cloudy 8 -13.3 0 -17.6 70 70 N 18 30 30.53 1034 10 16.0934 0 0
9:55 pm 21:55 Cloudy 8 -13.2 -1 -18.4 65 65 N 16 26 30.53 1034 10 16.0934 0 0
10:15 pm 22:15 Cloudy 8 -13.3 -1 -18.6 65 65 NNW 20 31 30.53 1034 10 16.0934 0 0
10:35 pm 22:35 Cloudy 8 -13.3 -2 -18.9 63 63 N 22 35 30.53 1034 10 16.0934 0 0
10:55 pm 22:55 Cloudy 8 -13.3 -1 -18.5 65 65 N 15 24 30.53 1034 10 16.0934 0 0
11:15 pm 23:15 Cloudy 8 -13.6 -2 -18.7 66 66 N 21 33 30.53 1034 10 16.0934 0 0
11:35 pm 23:35 Cloudy 8 -13.6 -1 -18.4 67 67 N 18 30 30.56 1035 10 16.0934 0 0
11:55 pm 23:55 Cloudy 7 -13.8 -3 -19.2 64 64 N 16 26 30.56 1035 10 16.0934 0 0

Powered by AerisWeather